Back to catalog

STARLINK-36648

AliveCommunicationsVLEO
NORAD 67825·PAYLOAD·🇺🇸 United States

Launched Feb 16, 2026 from Vandenberg Space Force Base

Loading…

Next Passes (next 24 hours)

TLE

FreshSource: CelesTrak SupGP

Epoch: Sep 14, 2026, 22:43 UTC

1 67825C 26033E   26257.94701389  .00035629  00000+0  12905-2 0  2575
2 67825  42.9994 277.8518 0001438 264.7481  60.6390 15.27559590    16

Track STARLINK-36648 in real time with AllMySat

Download on the App Store